Location: Newark
(44.6028°N, 124.0883°W)
Time: 03:32:02
(UTC+00:00)

OTV 5 (USA 277) - Pass Details

Date: 02 October 2019
Orbit: 310 x 324 km, 54.5° (Epoch: 08 October)

Event Time Altitude Azimuth Distance (km) Brightness Sun altitude
Exits shadow 12:55:07 16° 191° (S) 969 ? -15.0°
Maximum altitude 12:56:51 30° 136° (SE) 617 ? -14.7°
Drops below altitude 10° 12:59:18 10° 72° (ENE) 1,238 ? -14.3°
Sets 13:01:24 0° 61° (ENE) 2,072 ? -13.9°
